• In Kazakhstan
  • List of Countries
  • For 7 days
  • Water Temperature
  • Satellite Maps
  • Weather Map
  • News
  • Weather Widgets
  • user-avatar
    Login

    Hourly Weather Cirie

    Today, 27 June, Thursday

    Time Temperature Precipitation Wind Pressure Humidity
    00:00 +27°C° 0 mm 1 mps 737 mmHg 52%
    01:00 +27°C° 0 mm 1 mps 737 mmHg 51%
    02:00 +27°C° 0 mm 1 mps 737 mmHg 50%
    03:00 +26°C° 0 mm 1 mps 736 mmHg 49%
    04:00 +26°C° 0 mm 1 mps 736 mmHg 48%
    05:00 +27°C° 0 mm 1 mps 736 mmHg 50%
    06:00 +28°C° 0 mm 1 mps 736 mmHg 51%
    07:00 +29°C° 0 mm 1 mps 736 mmHg 53%
    08:00 +31°C° 0 mm 1 mps 736 mmHg 49%
    09:00 +33°C° 0 mm 1 mps 736 mmHg 45%
    10:00 +35°C° 0 mm 1 mps 736 mmHg 40%
    11:00 +36°C° 0 mm 1 mps 736 mmHg 38%
    12:00 +37°C° 0 mm 1 mps 735 mmHg 35%
    13:00 +39°C° 0 mm 1 mps 735 mmHg 33%
    14:00 +39°C° 0 mm 1 mps 735 mmHg 33%
    15:00 +39°C° 0 mm 1 mps 734 mmHg 33%
    16:00 +39°C° 0 mm 1 mps 734 mmHg 34%
    17:00 +37°C° 0 mm 1 mps 733 mmHg 39%
    18:00 +36°C° 0 mm 1 mps 733 mmHg 44%
    19:00 +32°C° 0 mm 0 mps 733 mmHg 49%
    20:00 +33°C° 0 mm 1 mps 733 mmHg 46%
    21:00 +31°C° 0 mm 2 mps 733 mmHg 42%
    22:00 +30°C° 0 mm 3 mps 733 mmHg 39%
    23:00 +29°C° 0 mm 3 mps 733 mmHg 37%

    Tomorrow, 28 June, Friday

    Time Temperature Precipitation Wind Pressure Humidity
    00:00 +29°C° 0 mm 3 mps 733 mmHg 35%
    01:00 +28°C° 0 mm 3 mps 733 mmHg 33%
    02:00 +28°C° 0 mm 2 mps 733 mmHg 32%
    03:00 +28°C° 0 mm 2 mps 732 mmHg 31%
    04:00 +27°C° 0 mm 2 mps 732 mmHg 31%
    05:00 +28°C° 0 mm 2 mps 732 mmHg 36%
    06:00 +28°C° 0 mm 2 mps 732 mmHg 41%
    07:00 +29°C° 0 mm 2 mps 732 mmHg 46%
    08:00 +30°C° 0 mm 2 mps 732 mmHg 46%
    09:00 +31°C° 0 mm 2 mps 732 mmHg 46%
    10:00 +32°C° 0 mm 2 mps 732 mmHg 46%
    11:00 +34°C° 0 mm 2 mps 732 mmHg 48%
    12:00 +35°C° 0 mm 2 mps 732 mmHg 50%
    13:00 +35°C° 0 mm 2 mps 731 mmHg 51%
    14:00 +35°C° 0 mm 2 mps 731 mmHg 53%
    15:00 +35°C° 0 mm 2 mps 731 mmHg 55%
    16:00 +35°C° 0 mm 2 mps 731 mmHg 57%
    17:00 +34°C° 0.2 mm 2 mps 731 mmHg 64%
    18:00 +32°C° 0.2 mm 2 mps 731 mmHg 71%
    19:00 +31°C° 0.2 mm 2 mps 731 mmHg 77%
    20:00 +29°C° 0.2 mm 2 mps 731 mmHg 81%
    21:00 +28°C° 0.2 mm 1 mps 732 mmHg 85%
    22:00 +26°C° 0.2 mm 1 mps 732 mmHg 89%
    23:00 +26°C° 0.7 mm 1 mps 732 mmHg 90%

    Day after tomorrow, 29 June, Saturday

    Time Temperature Precipitation Wind Pressure Humidity
    00:00 +26°C° 0.7 mm 1 mps 732 mmHg 90%
    01:00 +25°C° 0.7 mm 1 mps 732 mmHg 91%
    02:00 +25°C° 0 mm 1 mps 732 mmHg 90%
    03:00 +25°C° 0 mm 1 mps 732 mmHg 88%
    04:00 +24°C° 0 mm 1 mps 732 mmHg 87%
    05:00 +25°C° 0 mm 1 mps 732 mmHg 85%
    06:00 +25°C° 0 mm 1 mps 732 mmHg 83%
    07:00 +25°C° 0 mm 1 mps 732 mmHg 81%
    08:00 +26°C° 0 mm 1 mps 732 mmHg 74%
    09:00 +27°C° 0 mm 1 mps 732 mmHg 68%
    10:00 +28°C° 0 mm 2 mps 732 mmHg 62%
    11:00 +29°C° 0 mm 2 mps 732 mmHg 61%
    12:00 +30°C° 0 mm 2 mps 732 mmHg 59%
    13:00 +30°C° 0 mm 2 mps 732 mmHg 58%
    14:00 +30°C° 0 mm 2 mps 732 mmHg 58%
    15:00 +31°C° 0 mm 2 mps 732 mmHg 59%
    16:00 +31°C° 0 mm 2 mps 732 mmHg 60%
    17:00 +30°C° 0 mm 1 mps 732 mmHg 64%
    18:00 +29°C° 0 mm 1 mps 732 mmHg 69%
    19:00 +29°C° 0 mm 1 mps 732 mmHg 73%
    20:00 +27°C° 0 mm 1 mps 732 mmHg 76%
    21:00 +26°C° 0 mm 1 mps 733 mmHg 80%
    22:00 +23°C° 0 mm 0 mps 733 mmHg 83%
    23:00 +22°C° 0 mm 0 mps 733 mmHg 83%

    30 June, Sunday

    Time Temperature Precipitation Wind Pressure Humidity
    00:00 +22°C° 0 mm 0 mps 733 mmHg 84%
    01:00 +22°C° 0 mm 0 mps 733 mmHg 84%
    02:00 +21°C° 0 mm 0 mps 733 mmHg 84%
    03:00 +21°C° 0 mm 0 mps 733 mmHg 84%
    04:00 +21°C° 0 mm 0 mps 733 mmHg 84%
    05:00 +22°C° 0 mm 0 mps 733 mmHg 80%
    06:00 +23°C° 0 mm 0 mps 733 mmHg 77%
    07:00 +24°C° 0 mm 0 mps 733 mmHg 73%
    08:00 +25°C° 0 mm 0 mps 733 mmHg 69%
    09:00 +29°C° 0 mm 1 mps 733 mmHg 65%
    10:00 +30°C° 0 mm 1 mps 734 mmHg 61%
    11:00 +31°C° 0 mm 1 mps 733 mmHg 59%
    12:00 +32°C° 0 mm 1 mps 733 mmHg 57%
    13:00 +34°C° 0 mm 2 mps 733 mmHg 55%
    14:00 +34°C° 0.1 mm 2 mps 733 mmHg 54%
    15:00 +34°C° 0.1 mm 2 mps 733 mmHg 53%
    16:00 +34°C° 0.1 mm 2 mps 733 mmHg 53%
    17:00 +32°C° 0.1 mm 1 mps 733 mmHg 59%
    18:00 +32°C° 0.1 mm 1 mps 733 mmHg 65%
    19:00 +31°C° 0.1 mm 1 mps 733 mmHg 71%
    20:00 +29°C° 0 mm 1 mps 733 mmHg 73%
    21:00 +28°C° 0 mm 1 mps 733 mmHg 75%
    22:00 +26°C° 0 mm 1 mps 734 mmHg 77%
    23:00 +26°C° 0 mm 1 mps 734 mmHg 75%

    1 July, Monday

    Time Temperature Precipitation Wind Pressure Humidity
    00:00 +26°C° 0 mm 1 mps 734 mmHg 73%
    01:00 +25°C° 0 mm 1 mps 734 mmHg 70%
    02:00 +25°C° 0 mm 1 mps 733 mmHg 70%
    03:00 +25°C° 0 mm 1 mps 733 mmHg 69%
    04:00 +24°C° 0 mm 1 mps 733 mmHg 68%
    05:00 +23°C° 0 mm 0 mps 733 mmHg 67%
    06:00 +24°C° 0 mm 0 mps 733 mmHg 66%
    07:00 +26°C° 0 mm 0 mps 733 mmHg 65%
    08:00 +27°C° 0 mm 0 mps 733 mmHg 63%
    09:00 +30°C° 0 mm 1 mps 733 mmHg 61%
    10:00 +31°C° 0 mm 1 mps 733 mmHg 59%
    11:00 +32°C° 0.1 mm 1 mps 733 mmHg 57%
    12:00 +33°C° 0.1 mm 1 mps 733 mmHg 56%
    13:00 +35°C° 0.1 mm 2 mps 733 mmHg 54%
    14:00 +35°C° 0.4 mm 2 mps 732 mmHg 54%
    15:00 +35°C° 0.4 mm 2 mps 732 mmHg 55%
    16:00 +35°C° 0.4 mm 2 mps 732 mmHg 55%
    17:00 +32°C° 0.4 mm 2 mps 732 mmHg 59%
    18:00 +31°C° 0.4 mm 1 mps 732 mmHg 62%
    19:00 +29°C° 0.4 mm 1 mps 732 mmHg 66%
    20:00 +28°C° 0.4 mm 1 mps 732 mmHg 66%
    21:00 +27°C° 0.4 mm 1 mps 732 mmHg 66%
    22:00 +26°C° 0.4 mm 2 mps 733 mmHg 66%
    23:00 +26°C° 0 mm 1 mps 732 mmHg 66%

    2 July, Tuesday

    Time Temperature Precipitation Wind Pressure Humidity
    00:00 +26°C° 0 mm 1 mps 732 mmHg 65%
    01:00 +25°C° 0 mm 1 mps 732 mmHg 64%
    02:00 +25°C° 0.1 mm 1 mps 732 mmHg 65%
    03:00 +25°C° 0.1 mm 1 mps 731 mmHg 65%
    04:00 +24°C° 0.1 mm 1 mps 731 mmHg 66%
    05:00 +25°C° 0.1 mm 1 mps 731 mmHg 66%
    06:00 +24°C° 0.1 mm 0 mps 731 mmHg 65%
    07:00 +25°C° 0.1 mm 0 mps 731 mmHg 64%
    08:00 +26°C° 0.1 mm 0 mps 731 mmHg 62%
    09:00 +29°C° 0.1 mm 1 mps 731 mmHg 60%
    10:00 +31°C° 0.1 mm 1 mps 731 mmHg 58%
    11:00 +31°C° 0.5 mm 1 mps 731 mmHg 57%
    12:00 +32°C° 0.5 mm 2 mps 731 mmHg 57%
    13:00 +34°C° 0.5 mm 2 mps 731 mmHg 56%
    14:00 +34°C° 1 mm 2 mps 730 mmHg 57%
    15:00 +32°C° 1 mm 2 mps 730 mmHg 59%
    16:00 +32°C° 1 mm 1 mps 730 mmHg 61%
    17:00 +31°C° 0.4 mm 1 mps 730 mmHg 64%
    18:00 +30°C° 0.4 mm 1 mps 730 mmHg 68%
    19:00 +29°C° 0.4 mm 1 mps 730 mmHg 71%
    20:00 +28°C° 1.1 mm 1 mps 730 mmHg 73%
    21:00 +26°C° 1.1 mm 1 mps 730 mmHg 75%
    22:00 +25°C° 1.1 mm 1 mps 730 mmHg 77%
    23:00 +24°C° 0.4 mm 1 mps 730 mmHg 79%
    Show more